{"data":{"norad_id":52837,"epoch":"2026-05-25T02:54:33.961824Z","epoch_age_seconds":78671,"freshness":"FRESH","line1":"1 52837U 22062H   26145.12122641 -.00000371  00000+0 -51986-5 0  9990","line2":"2 52837  53.2133  51.0054 0001865  92.3231 267.7974 15.08844401217321","mean_motion":15.08844401,"eccentricity":0.0001865,"inclination_deg":53.2133,"raan_deg":51.0054,"arg_perigee_deg":92.3231,"mean_anomaly_deg":267.7974,"bstar":-5.1986e-6,"rev_number":21732,"period_min":95.437276305339,"perigee_km":538.43975471672,"apogee_km":541.02011908418,"semimajor_km":6917.8669369004,"source":"CELESTRAK","updated_at":"2026-05-25T13:38:17.241808Z"}}